Location: Asheville, NC
(35.6000°N, 82.5500°W)
Time: 06:07:23
(UTC-04:00)

Vanguard 3 - Pass Details

Date: 17 February 2018
Orbit: 508 x 3264 km, 33.3° (Epoch: 19 May)

Event Time Altitude Azimuth Distance (km) Brightness Sun altitude
Rises 16:37:18 0° 240° (WSW) 3,066 11.9 17.5°
Reaches altitude 10° 16:40:04 10° 232° (SW) 1,929 11.4 17.0°
Maximum altitude 16:43:51 36° 165° (SSE) 837 7.6 16.3°
Drops below altitude 10° 16:47:14 10° 96° (E) 1,713 8.4 15.7°
Sets 16:49:32 0° 87° (E) 2,663 9.3 15.3°
